TimeEST,TemperatureF,Dew PointF,Humidity,Sea Level PressureIn,VisibilityMPH,Wind Direction,Wind SpeedMPH,Gust SpeedMPH,PrecipitationIn,Events,Conditions,WindDirDegrees,DateUTC
12:15 AM,57.2,46.4,67,30.12,10.0,NNW,10.4,-,N/A,,Clear,330,2012-11-23 05:15:00
12:35 AM,57.2,46.4,67,30.12,10.0,NNW,9.2,-,N/A,,Clear,330,2012-11-23 05:35:00
12:55 AM,57.2,46.4,67,30.12,10.0,NNW,10.4,16.1,N/A,,Clear,330,2012-11-23 05:55:00
1:15 AM,59.0,48.2,67,30.11,10.0,NNW,9.2,-,N/A,,Clear,340,2012-11-23 06:15:00
1:35 AM,59.0,48.2,67,30.11,10.0,NNW,6.9,-,N/A,,Clear,340,2012-11-23 06:35:00
1:55 AM,59.0,48.2,67,30.11,10.0,NW,8.1,-,N/A,,Clear,320,2012-11-23 06:55:00
2:15 AM,59.0,48.2,67,30.11,10.0,NW,6.9,-,N/A,,Clear,320,2012-11-23 07:15:00
2:35 AM,59.0,48.2,67,30.11,10.0,NW,9.2,-,N/A,,Mostly Cloudy,320,2012-11-23 07:35:00
2:55 AM,57.2,48.2,72,30.10,10.0,NW,11.5,-,N/A,,Mostly Cloudy,310,2012-11-23 07:55:00
3:15 AM,57.2,48.2,72,30.10,10.0,NW,5.8,-,N/A,,Scattered Clouds,320,2012-11-23 08:15:00
3:35 AM,55.4,48.2,77,30.10,10.0,NW,5.8,-,N/A,,Scattered Clouds,320,2012-11-23 08:35:00
3:55 AM,57.2,50.0,77,30.10,10.0,WNW,6.9,-,N/A,,Scattered Clouds,300,2012-11-23 08:55:00
4:15 AM,57.2,50.0,77,30.10,10.0,NW,9.2,-,N/A,,Overcast,310,2012-11-23 09:15:00
4:35 AM,57.2,48.2,72,30.10,10.0,NW,8.1,-,N/A,,Overcast,320,2012-11-23 09:35:00
4:55 AM,57.2,48.2,72,30.10,10.0,NW,9.2,-,N/A,,Mostly Cloudy,320,2012-11-23 09:55:00
5:15 AM,57.2,48.2,72,30.10,10.0,NNW,8.1,-,N/A,,Scattered Clouds,330,2012-11-23 10:15:00
6:47 AM,59.0,48.2,67,30.12,10.0,NNW,9.2,-,N/A,,Partly Cloudy,330,2012-11-23 11:47:00
7:47 AM,59.0,48.2,67,30.14,10.0,NNW,9.2,-,N/A,,Partly Cloudy,330,2012-11-23 12:47:00
8:47 AM,64.4,50.0,59,30.15,10.0,NNW,10.4,-,N/A,,Partly Cloudy,340,2012-11-23 13:47:00
9:47 AM,68.0,50.0,52,30.17,10.0,NNW,9.2,-,N/A,,Clear,330,2012-11-23 14:47:00
10:47 AM,73.4,53.6,50,30.16,10.0,North,8.1,-,N/A,,Clear,350,2012-11-23 15:47:00
11:47 AM,73.4,50.0,44,30.14,10.0,North,9.2,17.3,N/A,,Partly Cloudy,350,2012-11-23 16:47:00
1:47 PM,73.4,53.6,50,30.09,7.0,North,11.5,20.7,N/A,,Scattered Clouds,360,2012-11-23 18:47:00
3:47 PM,71.6,53.6,53,30.08,7.0,North,10.4,-,N/A,,Partly Cloudy,360,2012-11-23 20:47:00
4:47 PM,68.0,53.6,60,30.08,7.0,North,8.1,-,N/A,,Partly Cloudy,10,2012-11-23 21:47:00
5:47 PM,66.2,55.4,68,30.08,7.0,Calm,Calm,-,N/A,,Partly Cloudy,0,2012-11-23 22:47:00
7:15 PM,62.6,57.2,82,30.12,10.0,NNW,3.5,-,N/A,,Clear,340,2012-11-24 00:15:00
7:35 PM,62.6,57.2,82,30.12,10.0,NNW,3.5,-,N/A,,Clear,330,2012-11-24 00:35:00
7:55 PM,62.6,57.2,82,30.12,10.0,NNW,3.5,-,N/A,,Clear,340,2012-11-24 00:55:00
8:15 PM,62.6,57.2,82,30.11,10.0,North,4.6,-,N/A,,Clear,350,2012-11-24 01:15:00
8:35 PM,62.6,55.4,77,30.11,10.0,North,3.5,-,N/A,,Clear,350,2012-11-24 01:35:00
8:55 PM,62.6,55.4,77,30.12,10.0,NNW,3.5,-,N/A,,Clear,340,2012-11-24 01:55:00
9:15 PM,59.0,53.6,82,30.12,10.0,NW,3.5,-,N/A,,Clear,320,2012-11-24 02:15:00
9:35 PM,59.0,53.6,82,30.13,10.0,WNW,5.8,-,N/A,,Clear,300,2012-11-24 02:35:00
9:55 PM,59.0,53.6,82,30.12,10.0,WNW,3.5,-,N/A,,Clear,300,2012-11-24 02:55:00
10:15 PM,57.2,51.8,82,30.13,10.0,WNW,4.6,-,N/A,,Clear,300,2012-11-24 03:15:00
10:35 PM,57.2,51.8,82,30.12,10.0,WNW,4.6,-,N/A,,Clear,300,2012-11-24 03:35:00
10:55 PM,55.4,51.8,88,30.12,10.0,Calm,Calm,-,N/A,,Clear,0,2012-11-24 03:55:00
11:15 PM,55.4,50.0,82,30.12,10.0,Calm,Calm,-,N/A,,Clear,0,2012-11-24 04:15:00
11:35 PM,53.6,51.8,94,30.11,10.0,Calm,Calm,-,N/A,,Clear,0,2012-11-24 04:35:00
11:55 PM,51.8,50.0,94,30.10,10.0,Calm,Calm,-,N/A,,Clear,0,2012-11-24 04:55:00